| time (UTC) | temp C | wind direction | speed KPH | gust KPH | rain 1hr cm | rain 24hr cm | rain mn cm | humidity % | barometer mb |
| 20260506201530 | 5 | 305 | 9.7 | 16.1 | 0.00 | 0.00 | 0.00 | 69 | 1015.5 |
| 20260506200030 | 5 | 295 | 6.4 | 14.5 | 0.00 | 0.00 | 0.00 | 68 | 1015.5 |
| 20260506194528 | 5 | 330 | 9.7 | 17.7 | 0.00 | 0.00 | 0.00 | 66 | 1015.5 |
| 20260506193027 | 5 | 287 | 8.0 | 17.7 | 0.00 | 0.00 | 0.00 | 65 | 1015.5 |
| 20260506191526 | 6 | 300 | 9.7 | 19.3 | 0.00 | 0.00 | 0.00 | 63 | 1015.3 |
| 20260506190027 | 6 | 324 | 9.7 | 19.3 | 0.00 | 0.00 | 0.00 | 64 | 1015.3 |
| 20260506184525 | 6 | 336 | 11.3 | 24.1 | 0.00 | 0.00 | 0.00 | 60 | 1015.2 |
| 20260506183025 | 6 | 331 | 9.7 | 20.9 | 0.00 | 0.00 | 0.00 | 59 | 1015.1 |
| 20260506181524 | 6 | 308 | 9.7 | 22.5 | 0.00 | 0.00 | 0.00 | 57 | 1015.0 |
| 20260506180023 | 6 | 321 | 11.3 | 24.1 | 0.00 | 0.00 | 0.00 | 57 | 1015.0 |
| 20260506174522 | 7 | 321 | 16.1 | 25.7 | 0.00 | 0.00 | 0.00 | 59 | 1015.0 |
| 20260506173022 | 7 | 329 | 14.5 | 25.7 | 0.00 | 0.00 | 0.00 | 63 | 1014.9 |
| 20260506171524 | 7 | 311 | 12.9 | 24.1 | 0.00 | 0.00 | 0.00 | 59 | 1014.8 |
| 20260506170023 | 7 | 304 | 17.7 | 29.0 | 0.00 | 0.00 | 0.00 | 57 | 1014.7 |
| 20260506164520 | 7 | 340 | 14.5 | 27.4 | 0.00 | 0.00 | 0.00 | 54 | 1014.7 |
| 20260506163020 | 7 | 326 | 16.1 | 30.6 | 0.00 | 0.00 | 0.00 | 57 | 1014.6 |
| 20260506161521 | 7 | 319 | 14.5 | 27.4 | 0.00 | 0.00 | 0.00 | 58 | 1014.6 |
| 20260506160018 | 7 | 331 | 11.3 | 25.7 | 0.00 | 0.00 | 0.00 | 60 | 1014.7 |
| 20260506154518 | 7 | 334 | 12.9 | 24.1 | 0.00 | 0.00 | 0.00 | 60 | 1014.7 |
| 20260506153018 | 7 | 341 | 19.3 | 30.6 | 0.00 | 0.00 | 0.00 | 53 | 1014.7 |
| 20260506151517 | 8 | 315 | 14.5 | 25.7 | 0.00 | 0.00 | 0.00 | 56 | 1014.8 |
| 20260506150016 | 7 | 323 | 20.9 | 32.2 | 0.00 | 0.00 | 0.00 | 56 | 1014.8 |
| 20260506144520 | 7 | 342 | 20.9 | 25.7 | 0.00 | 0.00 | 0.00 | 54 | 1015.0 |
| 20260506143014 | 8 | 338 | 14.5 | 24.1 | 0.00 | 0.00 | 0.00 | 56 | 1015.1 |
| 20260506141613 | 8 | 329 | 14.5 | 22.5 | 0.00 | 0.00 | 0.00 | 55 | 1015.0 |
| 20260506140010 | 7 | 323 | 12.9 | 27.4 | 0.00 | 0.00 | 0.00 | 58 | 1015.0 |
| 20260506134510 | 8 | 323 | 11.3 | 24.1 | 0.00 | 0.00 | 0.00 | 60 | 1015.0 |
| 20260506133008 | 8 | 288 | 11.3 | 19.3 | 0.00 | 0.00 | 0.00 | 60 | 1015.1 |
| 20260506131507 | 7 | 321 | 11.3 | 22.5 | 0.00 | 0.00 | 0.00 | 57 | 1015.2 |
| 20260506130005 | 7 | 341 | 11.3 | 22.5 | 0.00 | 0.00 | 0.00 | 60 | 1015.2 |
| 20260506124601 | 7 | 311 | 9.7 | 20.9 | 0.00 | 0.00 | 0.00 | 63 | 1015.2 |
| 20260506123059 | 6 | 254 | 14.5 | 22.5 | 0.00 | 0.00 | 0.00 | 62 | 1015.2 |
| 20260506121558 | 6 | 277 | 14.5 | 20.9 | 0.00 | 0.00 | 0.00 | 67 | 1015.3 |
| 20260506120156 | 6 | 297 | 16.1 | 20.9 | 0.00 | 0.00 | 0.00 | 69 | 1015.4 |
| 20260506114554 | 6 | 273 | 9.7 | 20.9 | 0.00 | 0.00 | 0.00 | 68 | 1015.4 |
| 20260506113053 | 6 | 255 | 9.7 | 16.1 | 0.00 | 0.00 | 0.00 | 66 | 1015.3 |
| 20260506111552 | 5 | 275 | 8.0 | 14.5 | 0.00 | 0.00 | 0.00 | 71 | 1015.2 |
| 20260506110050 | 5 | 283 | 8.0 | 14.5 | 0.00 | 0.00 | 0.00 | 72 | 1015.3 |
| 20260506104555 | 5 | 292 | 6.4 | 12.9 | 0.00 | 0.00 | 0.00 | 74 | 1015.3 |
| 20260506103049 | 5 | 253 | 11.3 | 17.7 | 0.00 | 0.00 | 0.00 | 76 | 1015.2 |
| 20260506101550 | 5 | 266 | 14.5 | 24.1 | 0.00 | 0.00 | 0.00 | 75 | 1015.3 |
| 20260506100044 | 5 | 277 | 17.7 | 29.0 | 0.00 | 0.00 | 0.00 | 74 | 1015.4 |
| 20260506094544 | 6 | 271 | 12.9 | 17.7 | 0.00 | 0.00 | 0.00 | 69 | 1015.2 |
| 20260506093045 | 6 | 258 | 9.7 | 16.1 | 0.00 | 0.00 | 0.00 | 68 | 1015.2 |
| 20260506091545 | 6 | 271 | 6.4 | 14.5 | 0.00 | 0.00 | 0.00 | 65 | 1015.3 |
| 20260506090041 | 6 | 299 | 3.2 | 12.9 | 0.00 | 0.00 | 0.00 | 67 | 1015.3 |
| 20260506084540 | 6 | 340 | 6.4 | 12.9 | 0.00 | 0.00 | 0.00 | 72 | 1015.2 |
| 20260506083042 | 6 | 331 | 4.8 | 12.9 | 0.00 | 0.00 | 0.00 | 70 | 1015.2 |
| 20260506081539 | 5 | 281 | 6.4 | 11.3 | 0.00 | 0.00 | 0.00 | 68 | 1015.2 |
| 20260506073036 | 6 | 196 | 3.2 | 6.4 | 0.00 | 0.00 | 0.00 | 66 | 1015.1 |
| 20260506071536 | 6 | 129 | 1.6 | 6.4 | 0.00 | 0.00 | 0.00 | 65 | 1014.9 |
| 20260506061528 | 6 | 92 | 1.6 | 3.2 | 0.00 | 0.00 | 0.00 | 69 | 1014.9 |
| 20260506044512 | 2 | 346 | 0.0 | 0.0 | 0.00 | 0.00 | 0.00 | 81 | 1014.6 |
| 20260506043011 | 2 | 346 | 0.0 | 0.0 | 0.00 | 0.00 | 0.00 | 81 | 1014.6 |
| 20260506041510 | 2 | 346 | 0.0 | 0.0 | 0.00 | 0.00 | 0.00 | 80 | 1014.5 |
| 20260506040010 | 2 | 346 | 0.0 | 0.0 | 0.00 | 0.00 | 0.00 | 80 | 1014.4 |
| 20260506034509 | 2 | 335 | 0.0 | 0.0 | 0.00 | 0.00 | 0.00 | 82 | 1014.4 |
| 20260506033007 | 1 | 335 | 0.0 | 0.0 | 0.00 | 0.00 | 0.00 | 82 | 1014.5 |
| 20260506031508 | 1 | 335 | 0.0 | 0.0 | 0.00 | 0.00 | 0.00 | 80 | 1014.5 |
| 20260506030005 | 1 | 340 | 0.0 | 0.0 | 0.00 | 0.00 | 0.00 | 80 | 1014.6 |
| 20260506024505 | 2 | 333 | 0.0 | 0.0 | 0.00 | 0.00 | 0.00 | 80 | 1014.6 |
| 20260506023007 | 2 | 333 | 0.0 | 0.0 | 0.00 | 0.00 | 0.00 | 79 | 1014.6 |
| 20260506021504 | 2 | 5 | 0.0 | 0.0 | 0.00 | 0.00 | 0.00 | 80 | 1014.6 |
| 20260506020002 | 1 | 9 | 0.0 | 0.0 | 0.00 | 0.00 | 0.00 | 80 | 1014.6 |
| 20260506014501 | 1 | 331 | 0.0 | 0.0 | 0.00 | 0.00 | 0.00 | 79 | 1014.7 |
| 20260506013106 | 2 | 331 | 0.0 | 0.0 | 0.00 | 0.00 | 0.00 | 79 | 1014.7 |
| 20260506011623 | 2 | 333 | 0.0 | 0.0 | 0.00 | 0.00 | 0.00 | 79 | 1014.6 |
| 20260506010106 | 2 | 328 | 0.0 | 0.0 | 0.00 | 0.00 | 0.00 | 79 | 1014.7 |
| 20260506004554 | 2 | 328 | 0.0 | 0.0 | 0.00 | 0.00 | 0.00 | 79 | 1014.7 |
| 20260506003055 | 2 | 338 | 1.6 | 4.8 | 0.00 | 0.00 | 0.00 | 79 | 1014.7 |
| 20260506001550 | 2 | 323 | 0.0 | 0.0 | 0.00 | 0.00 | 0.00 | 78 | 1014.8 |
| 20260506000057 | 3 | 328 | 3.2 | 6.4 | 0.00 | 0.00 | 0.00 | 78 | 1014.7 |
| 20260505234548 | 3 | 324 | 1.6 | 4.8 | 0.00 | 0.00 | 0.00 | 78 | 1014.7 |
| 20260505233046 | 3 | 330 | 1.6 | 6.4 | 0.00 | 0.00 | 0.00 | 77 | 1014.7 |
| 20260505231545 | 3 | 322 | 0.0 | 0.0 | 0.00 | 0.00 | 0.00 | 77 | 1014.7 |
| 20260505230043 | 3 | 322 | 0.0 | 0.0 | 0.00 | 0.00 | 0.00 | 77 | 1014.6 |
| 20260505224542 | 3 | 322 | 0.0 | 0.0 | 0.00 | 0.00 | 0.00 | 76 | 1014.7 |
| 20260505223039 | 3 | 322 | 0.0 | 0.0 | 0.00 | 0.00 | 0.00 | 75 | 1014.7 |
| 20260505221541 | 3 | 322 | 0.0 | 0.0 | 0.00 | 0.00 | 0.00 | 75 | 1014.7 |
| 20260505220048 | 3 | 321 | 0.0 | 0.0 | 0.00 | 0.00 | 0.00 | 74 | 1014.7 |
| 20260505214534 | 3 | 313 | 0.0 | 0.0 | 0.00 | 0.00 | 0.00 | 73 | 1014.7 |
| 20260505213037 | 3 | 309 | 0.0 | 0.0 | 0.00 | 0.00 | 0.00 | 72 | 1014.7 |
| 20260505211538 | 3 | 314 | 0.0 | 4.8 | 0.00 | 0.00 | 0.00 | 71 | 1014.6 |
| 20260505210036 | 4 | 339 | 3.2 | 9.7 | 0.00 | 0.00 | 0.00 | 70 | 1014.6 |
| 20260505204530 | 4 | 294 | 4.8 | 11.3 | 0.00 | 0.00 | 0.00 | 68 | 1014.6 |
| 20260505203030 | 5 | 296 | 4.8 | 14.5 | 0.00 | 0.00 | 0.00 | 68 | 1014.5 |